Regional Weather Roundup
Issued by NWS

Home | Current Version | Previous Version | Graphics & Text | Print | Product List | Glossary On
Versions: 1 2 3 4 5 6 7 8 9 10 11 12 13 14 15 16 17 18 19 20 21 22 23 24 25 26 27 28 29 30 31 32 33 34 35 36 37 38 39 40 41 42 43 44 45 46 47 48 49 50
000
ASUS43 KLMK 050010
RWRKY
KENTUCKY REGIONAL WEATHER ROUNDUP
NATIONAL WEATHER SERVICE LOUISVILLE KY
700 PM EST WED MAR 04 2015

NOTE "FAIR" INDICATES FEW OR NO CLOUDS BELOW 12,000 FEET
WITH NO SIGNIFICANT WEATHER AND/OR OBSTRUCTIONS TO VISIBILITY.

KYZ001>023-026-027-061>063-070>075-050100-
WESTERN AND SOUTH CENTRAL KENTUCKY

CITY           SKY/WX    TMP DP  RH WIND       PRES   REMARKS
PADUCAH        SNOW      21  18  88 N23G30    30.18S VSB 1/2 WCI   5
HENDERSON      CLOUDY    21  18  86 N9        30.22R VSB 3/4 WCI  11
OWENSBORO      HVY SNOW  22  21  96 N14       30.21R VSB<1/4 WCI   9
HOPKINSVILLE   LGTSLEET  28  25  86 N9G20     30.12S WCI  20
BOWLING GREEN  FRZ RAIN  33  30  88 N9        30.11R FOG     WCI  25
GLASGOW        LGT SNOW  34  34 100 N12       30.09R WCI  25
$$

KYZ024-025-028>034-038-045-046-053-050100-
NORTH CENTRAL KENTUCKY

CITY           SKY/WX    TMP DP  RH WIND       PRES   REMARKS
LOUISVILLE/SDF HVY SNOW  28  26  92 N15       30.14R VSB 1/4 WCI  16
LOUISVILLE/LOU SNOW      28  26  92 N13       30.14R VSB 1/2 WCI  17
FORT KNOX      LGT SNOW  29  27  92 NW10G20   30.10R VSB 3/4 WCI  19
$$

KYZ035>037-039>044-047>052-055>060-089>105-050100-
NORTHEAST KENTUCKY

CITY           SKY/WX    TMP DP  RH WIND       PRES   REMARKS
LEXINGTON      LGT SNOW  32  30  92 N17G24    30.05R FOG     WCI  21
COVINGTON      LGT SNOW  29  26  89 NW14      30.09R VSB 3/4 WCI  18
FRANKFORT      SNOW      31  30  96 N9        30.07R VSB 1/2 WCI  23
$$

KYZ054-064>069-076>088-106>120-050100-
SOUTHEAST KENTUCKY

CITY           SKY/WX    TMP DP  RH WIND       PRES   REMARKS
JACKSON        LGT RAIN  38  36  92 VRB6      29.97R WCI  33
LONDON         LGT RAIN  39  35  86 N9        29.98R WCI  33
SOMERSET       LGT RAIN  36  36 100 N8        30.01R WCI  29
MIDDLESBORO    RAIN      47  46  97 NE8       29.92R
MONTICELLO     LGT SNOW  37  37 100 N13       30.05R FOG     WCI  29
$$



USA.gov is the U.S. government's official web portal to all federal, state and local government web resources and services.